Location: Dackenheim
(49.5215°N, 8.1854°E)
Time: 10:29:43
(UTC+00:00)

Cosmos 1633 Rocket - Pass Details

Date: 19 May 2025
Orbit: 600 x 618 km, 82.5° (Epoch: 23 June)

Event Time Altitude Azimuth Distance (km) Brightness Sun altitude
Rises 22:53:03 0° 358° (N) 2,885 8.1 -20.2°
Reaches altitude 10° 22:55:33 10° 10° (N) 1,972 6.7 -20.2°
Maximum altitude 22:59:21 28° 70° (ENE) 1,137 4.5 -20.3°
Enters shadow 23:00:56 23° 106° (ESE) 1,319 4.5 -20.3°
